Location: Eurasberg
(48.3353°N, 11.0839°E)
Time: 14:59:22
(UTC+00:00)

Cosmos 1943 Rocket - Pass Details

Date: 18 January 2026
Orbit: 811 x 842 km, 71.0° (Epoch: 18 February)

Event Time Altitude Azimuth Distance (km) Brightness Sun altitude
Exits shadow 06:07:16 - 256° (WSW) 2,882 4.5 -8.7°
Reaches altitude 10° 06:08:51 10° 266° (W) 2,399 4.0 -8.4°
Maximum altitude 06:13:06 22° 317° (NW) 1,694 3.3 -7.8°
Drops below altitude 10° 06:17:23 10° 8° (N) 2,412 4.4 -7.1°
Sets 06:20:22 0° 23° (NNE) 3,350 5.3 -6.6°
